Theta_e
281 281 281 281 281 280 279 279 279 280 281 282 283 285 286 286 288 289 289 288 289 289 289 288 289 290 292 295 295 295 294 293 289 289 290 290 290 292 291 293 291 291 290
280 280 279 279 279 278 277 277 277 277 278 280 281 282 283 284 286 287 287 287 286 287 288 288 288 289 289 292 293 292 291 292 290 285 286 286 286 287 288 289 289 288 287
278 277 276 276 276 275 274 274 275 275 275 278 278 279 280 282 285 287 287 287 287 286 287 287 287 288 287 287 290 289 290 292 290 285 285 285 285 285 285 285 285 286 288
275 274 272 272 272 272 272 271 271 273 274 276 276 278 279 281 284 285 286 286 287 286 287 288 287 287 286 287 288 289 290 287 286 285 285 285 285 285 285 285 285 285 286
271 269 268 269 269 269 269 269 270 271 273 274 275 276 278 281 282 284 286 286 286 285 286 286 288 286 287 289 288 289 288 285 285 285 285 285 285 285 285 285 286 286 285
267 266 266 267 266 266 266 267 268 269 271 273 274 275 276 279 283 285 285 285 285 285 284 285 287 287 287 289 290 291 291 286 285 285 285 285 285 285 285 285 286 285 283
266 266 265 265 264 265 265 265 267 269 271 272 273 275 275 278 282 284 284 284 285 285 284 284 284 286 287 288 288 289 288 290 290 288 285 285 285 286 286 285 285 285 284
265 266 265 263 263 264 264 266 267 270 271 272 273 273 274 277 280 281 282 284 284 285 284 284 284 284 285 287 286 286 285 286 286 286 286 286 287 287 286 286 285 284 284
265 265 265 264 263 264 264 266 268 269 270 271 272 272 273 274 277 280 281 281 282 283 284 285 284 284 286 287 286 285 285 285 287 289 289 289 289 288 288 286 284 284 283
264 265 265 264 264 265 266 267 269 269 270 271 271 273 272 273 276 279 279 280 279 280 282 284 284 285 286 286 285 285 285 284 284 285 285 285 286 286 286 285 285 284 282
265 266 265 265 266 267 268 268 269 269 270 270 271 272 273 273 273 277 278 278 278 278 279 280 282 284 285 286 287 285 286 285 285 285 285 285 284 284 284 284 284 283 284
266 266 265 266 267 267 267 268 269 269 269 270 270 271 272 273 274 275 277 278 279 277 278 279 281 283 285 285 285 288 288 286 285 285 284 283 283 282 282 283 283 282 281
264 263 265 266 267 267 268 267 268 269 269 269 269 269 270 272 272 274 275 277 277 276 278 279 280 282 284 283 285 287 285 285 285 285 283 281 281 281 282 282 282 280 277
263 265 266 266 266 267 268 268 268 268 268 268 268 268 269 270 270 272 273 274 275 275 276 277 279 281 283 284 283 284 285 284 284 284 282 281 282 282 282 282 282 281 282
264 265 266 267 266 267 268 267 267 268 269 268 268 269 268 267 270 273 273 273 274 275 275 274 276 278 279 280 281 281 283 284 284 284 283 282 281 281 280 281 282 281 280
265 266 266 266 267 267 267 267 270 269 270 270 271 271 270 271 273 273 274 274 274 273 270 271 273 275 276 278 279 280 281 281 282 284 283 282 281 281 280 280 281 280 279
264 265 266 264 267 266 266 266 265 268 270 269 270 271 271 271 272 272 272 272 271 270 268 269 270 272 273 275 277 278 279 281 282 283 283 282 282 281 281 280 280 279 279
261 261 264 266 266 266 266 265 265 264 264 265 268 269 270 271 271 272 271 268 264 266 265 266 267 269 271 273 274 275 278 280 281 282 282 282 282 281 280 279 279 279 279
262 264 265 266 266 264 263 264 265 265 264 264 265 267 267 269 271 270 269 264 262 263 264 264 265 266 267 269 271 272 275 277 278 280 282 281 281 281 281 280 278 277 278
261 260 261 264 265 264 265 264 264 264 264 264 264 264 265 266 265 264 265 264 263 262 263 263 264 264 265 266 268 270 272 276 278 280 280 281 281 281 280 280 279 277 278
264 264 260 262 263 264 264 263 263 263 262 263 263 265 268 265 263 264 264 264 263 263 262 262 263 263 264 265 266 268 269 271 276 277 278 281 280 280 281 281 279 278 278
263 263 263 262 263 263 263 263 263 262 262 262 263 264 267 263 264 263 264 264 264 263 263 262 262 263 263 263 264 265 267 269 271 273 275 278 278 281 281 280 278 277 277
262 262 262 262 262 261 261 261 262 262 262 263 263 262 263 263 263 263 263 263 263 263 263 261 261 260 262 261 263 264 265 267 269 271 271 273 278 280 281 280 277 278 277
261 261 262 262 262 262 262 262 262 261 261 261 261 262 262 262 262 262 262 263 262 262 262 261 260 260 260 260 261 263 264 267 269 269 271 271 273 280 280 280 277 278 278
261 261 261 261 261 261 260 260 261 261 262 262 262 262 262 262 262 262 263 262 260 260 260 259 260 260 259 259 259 259 261 263 264 267 269 271 272 275 281 278 277 277 277
259 259 259 260 260 260 260 260 260 261 261 261 262 262 262 261 261 262 261 260 260 259 260 261 261 260 260 260 260 261 261 265 264 267 269 271 271 274 280 278 276 276 276
Wind_Speed
9 9 9 10 11 11 11 12 13 14 16 15 15 13 13 13 13 12 12 11 12 11 9 10 9 10 7 3 2 1 2 1 1 2 1 1 1 3 4 2 3 2 2
9 9 10 10 11 11 12 13 14 14 14 15 15 14 14 13 13 13 12 12 12 12 11 9 10 7 8 7 4 3 2 3 2 3 1 1 1 3 1 1 1 0 1
9 10 11 11 12 11 12 13 13 13 13 14 14 14 14 13 12 13 13 12 11 11 11 11 10 9 8 6 4 2 2 1 2 2 2 1 1 1 1 0 0 1 2
9 10 10 11 12 12 11 11 11 11 12 12 12 11 11 11 11 13 13 12 11 10 10 10 10 9 9 7 5 3 1 2 1 1 1 2 1 1 0 1 2 2 1
8 8 8 10 10 10 10 10 11 11 11 10 11 10 11 10 10 14 13 12 10 10 10 11 9 10 16 13 6 4 3 1 0 1 1 1 1 1 1 1 0 1 2
6 5 7 8 9 9 10 10 10 10 10 11 10 10 11 9 20 21 17 11 10 9 10 10 10 10 15 19 16 14 3 1 1 1 1 1 1 1 1 0 0 1 1
4 5 6 7 8 9 10 10 11 11 11 10 9 10 11 11 20 22 22 9 9 9 9 10 10 8 12 12 13 12 11 11 8 1 1 2 1 1 2 1 0 0 3
5 5 6 7 8 9 9 10 10 10 10 10 10 10 10 9 20 21 21 11 8 8 8 8 10 11 13 13 10 8 6 6 6 4 4 3 2 2 3 2 1 3 2
4 6 6 7 8 8 9 10 10 10 10 9 9 10 10 9 19 20 17 10 10 10 8 7 7 11 18 19 9 9 6 4 7 10 12 13 11 9 6 0 1 0 1
4 5 5 6 7 7 9 9 9 9 9 10 10 9 8 9 17 20 17 9 10 10 9 9 14 16 20 17 7 7 7 4 3 4 4 8 8 9 11 6 3 1 2
2 4 4 5 7 7 8 8 8 8 8 8 9 8 7 8 10 17 19 8 8 9 8 8 10 22 21 18 14 6 6 1 3 3 3 4 4 5 5 6 5 4 2
3 3 4 5 6 6 8 8 8 8 9 8 9 8 7 9 14 15 19 17 16 9 8 8 10 22 21 17 10 13 9 3 1 2 3 3 4 4 4 4 6 6 6
2 2 3 4 5 6 7 8 7 8 8 9 8 8 8 8 8 18 20 20 16 10 9 15 20 20 19 11 13 12 6 2 1 2 3 4 4 2 1 2 2 3 4
2 1 2 3 5 5 5 5 6 7 7 8 8 8 8 8 8 9 9 10 13 11 14 10 15 13 14 9 6 7 4 4 3 4 4 3 2 1 3 2 1 2 1
3 2 1 2 3 5 4 4 5 5 8 7 7 7 8 8 10 16 14 9 9 12 12 8 7 6 6 7 6 5 6 5 4 3 2 2 2 1 2 2 2 1 3
4 3 2 1 2 3 5 5 4 6 9 9 13 11 7 14 20 20 19 17 17 19 8 6 6 7 6 7 6 5 5 6 5 3 3 2 2 2 2 2 2 2 2
4 3 2 2 1 2 3 4 6 7 10 7 11 14 15 16 19 20 21 20 15 12 5 5 5 6 7 7 7 6 5 6 4 4 3 2 1 3 1 1 1 2 2
4 2 2 2 2 2 3 5 4 5 6 6 8 11 13 17 17 19 19 13 7 7 5 6 6 6 6 7 7 7 7 6 5 4 3 3 2 2 0 1 1 1 2
5 4 5 3 3 2 3 5 5 5 5 6 6 7 7 16 16 16 16 5 6 6 5 5 5 6 7 7 7 7 7 7 5 4 4 3 3 2 1 1 2 2 1
5 5 3 3 3 4 4 4 5 5 5 5 5 5 5 7 7 7 6 6 5 5 5 5 5 5 5 6 7 7 7 7 7 5 3 3 3 2 2 1 0 2 1
5 5 6 5 5 4 4 4 4 4 5 5 6 6 12 5 5 5 5 5 5 5 5 4 4 5 5 5 6 6 6 7 6 7 6 4 3 3 2 1 0 1 2
5 5 5 5 5 5 5 4 4 5 5 6 6 6 12 4 4 4 4 5 5 4 4 4 4 4 4 4 5 6 6 6 6 7 7 7 3 3 2 1 0 1 2
6 6 6 5 5 5 5 5 5 5 6 6 5 6 5 4 4 4 4 3 4 4 3 2 4 3 4 3 3 4 6 5 5 6 7 7 8 2 1 1 0 1 1
7 7 7 6 5 6 6 6 6 6 6 6 5 5 5 5 5 5 4 4 3 3 3 3 3 5 5 4 3 4 4 5 5 6 8 7 7 6 2 1 0 1 2
6 6 6 6 6 6 6 7 7 7 6 6 5 5 5 5 6 5 5 3 2 3 4 3 3 5 7 8 7 6 7 9 6 7 6 6 8 11 1 1 1 1 2
6 6 6 6 6 6 6 6 7 7 7 6 5 5 5 5 5 5 5 3 3 3 5 5 5 8 8 7 8 8 8 10 8 8 6 5 5 6 5 1 1 1 3
Wind_Direction
9 8 4 5 1 360 359 353 352 347 345 343 344 345 346 346 348 352 352 354 356 356 0 351 352 339 329 268 209 211 227 109 231 109 88 65 84 159 142 191 149 179 161
360 359 359 358 354 354 351 347 345 343 341 336 341 345 347 348 342 351 350 350 356 353 354 356 358 348 343 346 16 16 309 235 161 153 115 130 118 42 97 177 183 159 271
350 350 351 349 345 344 339 336 337 336 332 334 340 344 344 341 342 346 346 346 353 353 353 356 356 352 349 345 337 336 308 32 85 125 163 114 93 122 161 118 323 285 261
351 349 347 344 340 337 329 328 326 327 326 328 331 331 333 328 354 345 342 340 351 354 348 355 358 352 349 340 340 334 271 99 99 127 134 108 114 130 162 201 204 181 233
356 351 347 340 342 331 330 327 323 326 323 321 326 331 333 333 359 348 344 337 347 348 353 350 355 353 352 1 350 352 23 81 157 131 106 113 136 172 194 146 99 75 104
359 341 345 343 338 337 332 331 332 327 325 331 329 334 336 342 347 348 354 338 344 352 350 349 349 358 355 358 4 9 95 42 19 41 72 84 117 132 123 151 55 91 112
360 342 349 348 339 340 337 338 337 329 331 329 336 342 341 339 349 352 355 346 339 347 355 352 349 355 359 358 359 27 33 41 40 29 62 55 81 73 102 109 55 130 62
6 352 354 350 344 338 343 340 335 335 333 335 340 343 341 341 353 347 351 342 347 342 349 358 350 351 358 4 0 4 24 21 38 43 49 41 42 42 64 47 41 83 104
16 359 355 348 341 336 341 342 339 337 332 337 342 338 343 348 350 350 359 349 352 351 339 347 358 352 357 2 0 356 2 31 27 46 53 54 58 63 63 113 91 261 194
19 356 347 345 337 336 338 336 341 337 341 341 340 346 337 354 347 355 358 354 352 347 347 358 359 355 351 356 352 349 353 3 7 38 40 50 52 46 42 36 12 5 76
2 2 355 345 336 347 341 342 343 344 346 339 342 343 356 358 344 353 355 354 347 341 345 350 348 347 344 353 358 339 336 43 50 63 71 65 58 48 32 31 33 17 10
24 20 355 357 352 347 343 350 350 356 351 354 354 354 358 359 350 349 352 352 351 346 340 343 336 340 338 344 360 358 35 44 26 58 71 65 64 55 46 40 44 65 54
63 23 346 2 353 342 348 355 357 4 356 358 359 356 353 352 351 353 343 347 345 343 336 333 335 335 334 335 352 4 9 357 358 49 64 65 60 65 106 97 85 83 90
129 84 2 5 352 352 344 358 359 5 358 358 358 352 348 346 347 338 339 338 339 338 336 333 325 336 332 337 347 4 4 4 13 36 63 71 64 15 72 11 28 24 67
153 146 60 359 360 336 339 340 347 357 352 349 350 345 344 341 338 338 335 332 330 330 333 323 324 342 341 348 353 6 357 1 27 32 64 76 67 48 50 354 4 350 40
161 168 112 320 347 331 327 329 333 321 333 337 346 349 347 341 339 341 339 334 343 332 322 323 346 340 347 347 349 350 0 3 0 5 39 46 48 45 59 49 3 37 55
166 156 180 216 290 316 314 316 325 330 336 321 337 341 346 344 347 348 347 340 346 351 343 341 338 339 336 343 346 342 344 354 332 2 20 38 38 76 14 78 49 54 63
190 185 230 239 264 294 301 304 306 313 318 320 332 329 340 343 346 348 355 356 352 1 0 349 339 339 340 342 344 343 334 343 356 4 360 23 19 19 35 83 52 74 87
201 209 201 219 239 269 291 287 292 298 301 305 313 322 346 333 340 352 360 358 345 342 351 347 344 340 332 332 337 337 332 338 325 318 1 10 10 350 42 74 81 61 91
212 248 244 233 237 243 260 271 282 288 297 296 302 308 327 317 340 339 347 344 341 337 335 335 336 333 325 324 330 332 338 334 346 338 353 7 3 3 12 45 181 163 124
192 201 207 230 232 236 244 263 272 276 280 286 289 294 301 326 309 317 325 330 335 330 326 326 325 319 322 326 324 333 339 334 343 344 337 350 6 355 15 351 139 67 109
206 202 201 219 235 235 238 244 259 267 269 274 285 291 310 297 287 300 306 313 317 315 311 306 302 303 314 315 317 318 323 334 342 352 342 328 326 353 344 324 307 95 103
229 223 216 217 226 236 245 245 248 253 262 265 277 285 288 286 286 286 289 294 301 308 304 289 292 287 288 284 291 301 305 315 333 332 329 331 322 321 321 320 82 122 130
214 220 229 224 221 228 235 244 253 251 254 262 265 271 274 277 280 281 280 277 278 285 283 272 252 262 274 274 271 280 286 299 319 319 324 321 313 312 327 325 9 167 122
213 211 218 224 230 229 230 236 243 251 254 252 255 258 265 268 272 274 278 277 264 269 274 255 252 265 263 264 263 261 272 285 284 292 294 302 311 313 296 292 349 146 105
214 217 221 221 224 229 235 238 242 247 251 251 249 249 254 261 265 271 277 269 270 265 273 275 263 266 272 269 262 258 258 272 268 266 272 284 301 311 320 282 202 161 140